TimeMDT,TemperatureF,Dew PointF,Humidity,Sea Level PressureIn,VisibilityMPH,Wind Direction,Wind SpeedMPH,Gust SpeedMPH,PrecipitationIn,Events,Conditions,WindDirDegrees,DateUTC
12:00 AM,30.2,-9999,N/A,30.29,3.0,NW,18.4,25.3,0.00,Snow,Light Snow,320,2013-10-15 06:00:00
12:03 AM,30.2,-9999,N/A,30.28,3.0,NW,18.4,25.3,0.00,Snow,Light Snow,310,2013-10-15 06:03:00
12:53 AM,30.9,-9999,N/A,30.36,3.0,NW,19.6,-,0.00,Snow,Light Snow,320,2013-10-15 06:53:00
1:48 AM,30.2,-9999,N/A,30.29,1.8,NNW,15.0,-,0.00,Snow,Light Snow,330,2013-10-15 07:48:00
1:53 AM,30.9,-9999,N/A,30.37,1.5,NNW,12.7,-,0.01,Snow,Light Snow,330,2013-10-15 07:53:00
2:16 AM,32.0,-9999,N/A,30.30,3.0,NW,17.3,25.3,0.00,Snow,Light Snow,320,2013-10-15 08:16:00
2:53 AM,32.0,-9999,N/A,30.36,7.0,NW,16.1,-,0.00,,Overcast,310,2013-10-15 08:53:00
3:15 AM,30.2,-9999,N/A,30.29,9.0,NW,16.1,-,N/A,,Scattered Clouds,310,2013-10-15 09:15:00
3:53 AM,30.9,-9999,N/A,30.37,6.0,WNW,12.7,-,N/A,,Haze,300,2013-10-15 09:53:00
4:53 AM,32.0,-9999,N/A,30.38,8.0,NW,11.5,-,0.01,,Overcast,310,2013-10-15 10:53:00
5:53 AM,32.0,28.9,88,30.38,10.0,WNW,9.2,-,N/A,,Overcast,290,2013-10-15 11:53:00
6:53 AM,32.0,28.0,85,30.38,10.0,WNW,10.4,-,N/A,,Overcast,290,2013-10-15 12:53:00
7:53 AM,33.1,27.0,78,30.38,10.0,WNW,12.7,-,N/A,,Overcast,300,2013-10-15 13:53:00
8:53 AM,33.1,28.0,82,30.38,10.0,WNW,10.4,-,N/A,,Overcast,290,2013-10-15 14:53:00
9:53 AM,35.1,28.9,78,30.38,10.0,WNW,12.7,-,N/A,,Overcast,300,2013-10-15 15:53:00
10:53 AM,37.0,30.0,76,30.38,10.0,NW,13.8,-,N/A,,Overcast,310,2013-10-15 16:53:00
11:53 AM,39.0,30.0,70,30.35,10.0,NW,11.5,-,N/A,,Mostly Cloudy,320,2013-10-15 17:53:00
12:53 PM,39.0,30.0,70,30.33,10.0,NW,11.5,-,N/A,,Mostly Cloudy,320,2013-10-15 18:53:00
1:53 PM,42.1,28.9,60,30.29,10.0,NW,15.0,-,N/A,,Mostly Cloudy,310,2013-10-15 19:53:00
2:53 PM,42.1,28.0,58,30.28,10.0,NNW,12.7,-,N/A,,Mostly Cloudy,340,2013-10-15 20:53:00
3:53 PM,45.0,27.0,49,30.25,10.0,NNW,10.4,-,N/A,,Mostly Cloudy,340,2013-10-15 21:53:00
4:53 PM,42.1,26.1,53,30.25,10.0,NW,5.8,-,N/A,,Partly Cloudy,310,2013-10-15 22:53:00
5:53 PM,41.0,30.0,65,30.24,10.0,WNW,5.8,-,N/A,,Scattered Clouds,290,2013-10-15 23:53:00
6:53 PM,33.1,28.0,82,30.26,10.0,West,5.8,-,N/A,,Clear,260,2013-10-16 00:53:00
7:53 PM,30.9,28.0,89,30.25,10.0,SW,5.8,-,N/A,,Clear,230,2013-10-16 01:53:00
8:53 PM,32.0,27.0,82,30.25,10.0,SW,10.4,-,N/A,,Clear,230,2013-10-16 02:53:00
9:53 PM,30.9,26.1,82,30.24,10.0,SW,8.1,-,N/A,,Clear,220,2013-10-16 03:53:00
10:53 PM,33.1,28.0,82,30.20,10.0,SSW,10.4,-,N/A,,Clear,210,2013-10-16 04:53:00
11:53 PM,33.1,27.0,78,30.18,10.0,SSW,9.2,-,N/A,,Clear,210,2013-10-16 05:53:00